Change the Weather History Date:

Sunday, November 10, 2013

  Actual Average Record
Temperature  
Mean Temperature 40 °F -  
Max Temperature 46 °F 46 °F 59 °F (2005)
Min Temperature 33 °F 36 °F 30 °F (1996)
Degree Days  
Heating Degree Days 26    
Moisture  
Dew Point 33 °F    
Average Humidity 77    
Maximum Humidity 93    
Minimum Humidity 62    
Precipitation  
Precipitation 0.00 in - - ()
Sea Level Pressure  
Sea Level Pressure 30.03 in    
Wind  
Wind Speed 7 mph ()    
Max Wind Speed 10 mph    
Max Gust Speed -    
Visibility 6.2 miles    
Events      
Averages and records for this station are not official NWS values.
T = Trace of Precipitation, MM = Missing Value Source: Averaged Metar Reports

Daily Weather History Graph

Daily Weather History Graph

Search for Another Location

Airport or City:

Trip Planner

Search our weather history database for the weather conditions in past years. The results will help you decide how hot, cold, wet, or windy it might be!

Date:

Astronomy

Nov. 10, 2013 Rise Set
Actual Time 7:25 AM GMT 4:12 PM GMT
Civil Twilight 6:46 AM GMT 4:52 PM GMT
Nautical Twilight 6:03 AM GMT 5:35 PM GMT
Astronomical Twilight 5:21 AM GMT 6:17 PM GMT
Moon 1:12 PM GMT (11/10) 11:57 PM GMT (11/10)
Length of Visible Light 10h 05m
Length of Day
8h 46m
First Quarter, 53% of the Moon is Illuminated
Nov 10
First Quarter
Nov 17
Full
Nov 25
Last Quarter
Dec 3
New
Dec 9
First Quarter

Hourly Weather History & Observations

Time (GMT) Temp. Windchill Dew Point Humidity Pressure Visibility Wind Dir Wind Speed Gust Speed Precip Events Conditions
5:50 AM 35.6 °F 29.2 °F 30.2 °F 81% 29.80 in - WNW 8.1 mph - N/A   Clear
6:20 AM 35.6 °F 28.6 °F 30.2 °F 81% 29.80 in - NW 9.2 mph - N/A   Clear
6:50 AM 35.6 °F 28.0 °F 30.2 °F 81% 29.83 in - WNW 10.4 mph - N/A   Clear
7:20 AM 35.6 °F 29.2 °F 30.2 °F 81% 29.86 in - WNW 8.1 mph - N/A   Clear
7:50 AM 35.6 °F 29.2 °F 30.2 °F 81% 29.89 in - NW 8.1 mph - N/A   Clear
8:20 AM 37.4 °F 31.4 °F 30.2 °F 75% 29.89 in - WNW 8.1 mph - N/A   Clear
8:50 AM 37.4 °F 32.1 °F 30.2 °F 75% 29.92 in - NW 6.9 mph - N/A   Clear
9:20 AM 39.2 °F 35.0 °F 30.2 °F 70% 29.92 in - West 5.8 mph - N/A   Clear
9:50 AM 41.0 °F 36.4 °F 32.0 °F 70% 29.95 in - West 6.9 mph - N/A   Clear
10:20 AM 41.0 °F 36.4 °F 32.0 °F 70% 29.98 in 6.2 mi WNW 6.9 mph - N/A   Partly Cloudy
10:50 AM 42.8 °F 38.0 °F 33.8 °F 70% 29.98 in 6.2 mi NW 8.1 mph - N/A   Partly Cloudy
11:20 AM 44.6 °F 39.2 °F 33.8 °F 66% 30.01 in 6.2 mi NW 10.4 mph - N/A   Partly Cloudy
11:50 AM 46.4 °F 41.9 °F 33.8 °F 62% 30.01 in 6.2 mi NW 9.2 mph - N/A   Partly Cloudy
12:20 PM 46.4 °F 41.9 °F 33.8 °F 62% 30.04 in 6.2 mi NW 9.2 mph - N/A   Partly Cloudy
12:50 PM 46.4 °F 41.9 °F 35.6 °F 66% 30.04 in 6.2 mi NW 9.2 mph - N/A   Partly Cloudy
1:20 PM 46.4 °F 41.9 °F 35.6 °F 66% 30.06 in 6.2 mi NNW 9.2 mph - N/A   Partly Cloudy
1:50 PM 46.4 °F 42.4 °F 35.6 °F 66% 30.06 in 6.2 mi North 8.1 mph - N/A   Partly Cloudy
2:20 PM 46.4 °F 42.4 °F 35.6 °F 66% 30.06 in 6.2 mi NNW 8.1 mph - N/A   Partly Cloudy
2:50 PM 46.4 °F 42.4 °F 35.6 °F 66% 30.09 in 6.2 mi NNW 8.1 mph - N/A   Partly Cloudy
3:20 PM 46.4 °F 44.3 °F 35.6 °F 66% 30.09 in 6.2 mi WNW 4.6 mph - N/A   Partly Cloudy
3:50 PM 44.6 °F 41.4 °F 35.6 °F 71% 30.09 in 6.2 mi West 5.8 mph - N/A   Partly Cloudy
4:20 PM 42.8 °F 40.1 °F 33.8 °F 70% 30.12 in 6.2 mi Variable 4.6 mph - N/A   Partly Cloudy
4:50 PM 41.0 °F 39.0 °F 33.8 °F 76% 30.12 in - Variable 3.5 mph - N/A   Clear
5:20 PM 39.2 °F 37.0 °F 33.8 °F 81% 30.15 in 6.2 mi Variable 3.5 mph - N/A   Partly Cloudy
5:50 PM 37.4 °F 33.8 °F 32.0 °F 81% 30.15 in 6.2 mi SW 4.6 mph - N/A   Partly Cloudy
6:20 PM 37.4 °F 34.9 °F 33.8 °F 87% 30.15 in 6.2 mi SW 3.5 mph - N/A   Partly Cloudy
6:50 PM 33.8 °F 28.6 °F 30.2 °F 87% 30.15 in 6.2 mi South 5.8 mph - N/A   Partly Cloudy
7:20 PM 33.8 °F 29.6 °F 32.0 °F 93% 30.15 in - SSW 4.6 mph - N/A   Clear
7:50 PM 35.6 °F 29.9 °F 32.0 °F 87% 30.15 in - SW 6.9 mph - N/A   Clear
8:20 PM 33.8 °F 28.6 °F 32.0 °F 93% 30.15 in - SSW 5.8 mph - N/A   Clear
8:50 PM 33.8 °F 28.6 °F 32.0 °F 93% 30.15 in - SSW 5.8 mph - N/A   Clear
9:20 PM 33.8 °F 28.6 °F 32.0 °F 93% 30.18 in - South 5.8 mph - N/A   Clear
9:50 PM 33.8 °F 28.6 °F 32.0 °F 93% 30.15 in - South 5.8 mph - N/A   Clear